Weather in Aba

Nigeria     5°05′53″N   7°21′26″E
temp.,
°C
wind,
m/s
gust,
m/s
humid.,
%
clouds,
%
prec.,
mm/h
press.,
hPa
HPBL,
m
13 april, tue
tue1301:00+26ssw368597 0.0 1010274
04:00+26ssw2486100 0.0 1009118
07:00+26sw248466 0.0 1011190
10:00+31ssw336158 0.0 10131265
13:00+33s435379 0.0 10111479
16:00+34ssw3248100 0.1 10081698
19:00+28s487096 0.1 1009410
22:00+27ssw3780100 0.5 1012321
14 april, wed
wed1401:00+26sw2383100 5.1 101270
04:00+26s3588100 0.0 1009145
07:00+26se2388100 0.0 1011117
10:00+29s3473100 0.0 1012747
13:00+32s3456100 0.0 10111567
16:00+30s4565100 0.0 1009568
19:00+27s4879100 0.1 1010418
22:00+26sw2484100 0.1 1013132
15 april, thu
thu1501:00+25wnw2387100 1.3 1012108
04:00+25ssw1188100 0.0 101050
07:00+25sse2490100 0.0 1010153
10:00+27ese247596 0.0 1012324
13:00+31s115722 0.0 1010536
16:00+34sw21455 0.0 10061082
19:00+29ssw236167 0.0 100785
22:00+27sw4875100 0.0 1009294
16 april, fri
fri1601:00+26sw378597 0.0 1008352
04:00+26ssw2788100 0.0 1008279
07:00+26sw148878 0.0 1010209
10:00+31ssw346376 0.1 10111271
13:00+32ssw445789 0.4 10091472
16:00+31ssw446079 1.4 10071126
19:00+28s367679 2.7 1009261
22:00+26ssw2585100 0.5 1011190
17 april, sat
sat1701:00+26sw2686100 4.1 1009197
04:00+25sw3789100 0.0 1008269
07:00+26sw2587100 0.0 1009207
10:00+28ssw2480100 0.1 1011458
13:00+31s4461100 2.3 10101294
16:00+30s456695 2.8 1008832
19:00+27s48795 2.8 1009330
22:00+26ssw248544 0.0 1011139